UAL21 PANC-KLAX

Flight info

Callsign UAL21
Flight time 4h 42m
Altitude 39000
Route MDO B453 BOXER FOT ENI BURGL BAYST1
Aircraft B772/H-SDE2E3FGHIJ5LORVWXY/LB1D1

Departure

Time 2026-04-25 00:50
Airport Ted Stevens Anchorage International Airport (PANC)

Arrival

Time 2026-04-25 05:32
Airport Los Angeles International Airport (KLAX)
Time Latitude Longitude Altitude Speed Heading
2026-04-25 00:09 61.17759 -149.98870 125 ft 0 kts 335°
2026-04-25 00:31 61.17757 -149.98868 120 ft 1 kts 335°
2026-04-25 00:32 61.17741 -149.98855 121 ft 3 kts 339°
2026-04-25 00:32 61.17726 -149.98843 121 ft 3 kts 326°
2026-04-25 00:32 61.17713 -149.98816 119 ft 3 kts 290°
2026-04-25 00:32 61.17709 -149.98778 119 ft 3 kts 264°
2026-04-25 00:33 61.17713 -149.98737 119 ft 3 kts 251°
2026-04-25 00:33 61.17717 -149.98715 119 ft 1 kts 250°
2026-04-25 00:33 61.17717 -149.98711 119 ft 0 kts 250°
2026-04-25 00:39 61.17717 -149.98712 125 ft 1 kts 250°
2026-04-25 00:39 61.17715 -149.98725 120 ft 1 kts 250°
2026-04-25 00:39 61.17710 -149.98750 122 ft 5 kts 250°
2026-04-25 00:40 61.17697 -149.98825 120 ft 6 kts 250°
2026-04-25 00:40 61.17682 -149.98909 120 ft 6 kts 249°
2026-04-25 00:40 61.17665 -149.98996 121 ft 7 kts 241°
2026-04-25 00:40 61.17624 -149.99060 121 ft 8 kts 190°
2026-04-25 00:41 61.17566 -149.99025 121 ft 11 kts 158°
2026-04-25 00:41 61.17485 -149.98967 122 ft 12 kts 161°
2026-04-25 00:41 61.17407 -149.98911 121 ft 12 kts 161°
2026-04-25 00:41 61.17327 -149.98857 123 ft 12 kts 162°
2026-04-25 00:42 61.17247 -149.98801 121 ft 12 kts 157°
2026-04-25 00:42 61.17168 -149.98741 122 ft 12 kts 172°
2026-04-25 00:42 61.17120 -149.98850 122 ft 12 kts 274°
2026-04-25 00:42 61.17126 -149.99023 125 ft 12 kts 275°
2026-04-25 00:43 61.17125 -149.99195 125 ft 12 kts 269°
2026-04-25 00:43 61.17126 -149.99333 125 ft 8 kts 271°
2026-04-25 00:43 61.17126 -149.99389 125 ft 4 kts 271°
2026-04-25 00:43 61.17126 -149.99440 125 ft 4 kts 271°
2026-04-25 00:44 61.17127 -149.99534 124 ft 10 kts 270°
2026-04-25 00:44 61.17126 -149.99620 125 ft 3 kts 270°
2026-04-25 00:44 61.17126 -149.99631 125 ft 0 kts 270°
2026-04-25 00:46 61.17126 -149.99644 125 ft 4 kts 270°
2026-04-25 00:46 61.17134 -149.99839 123 ft 7 kts 301°
2026-04-25 00:47 61.17176 -149.99890 102 ft 7 kts 340°
2026-04-25 00:47 61.17199 -149.99906 130 ft 0 kts 345°
2026-04-25 00:49 61.17269 -149.99946 126 ft 33 kts 344°
2026-04-25 00:49 61.17737 -150.00188 120 ft 104 kts 348°
2026-04-25 00:49 61.18628 -150.00740 221 ft 154 kts 343°
2026-04-25 00:50 61.19655 -150.01361 1046 ft 153 kts 345°
2026-04-25 00:50 61.20714 -150.02032 1813 ft 165 kts 345°
2026-04-25 00:50 61.21876 -150.02826 2092 ft 187 kts 344°
2026-04-25 00:50 61.23174 -150.03700 2311 ft 209 kts 345°
2026-04-25 00:51 61.24630 -150.04666 2510 ft 229 kts 344°
2026-04-25 00:51 61.26193 -150.05697 2897 ft 243 kts 345°
2026-04-25 00:51 61.27896 -150.06019 3118 ft 251 kts 17°
2026-04-25 00:51 61.29359 -150.04141 3700 ft 249 kts 55°
2026-04-25 00:52 61.29955 -150.00867 4381 ft 243 kts 92°
2026-04-25 00:52 61.29743 -149.98626 4892 ft 237 kts 117°
2026-04-25 00:52 61.28651 -149.96173 5687 ft 233 kts 147°
2026-04-25 00:52 61.27274 -149.94450 6207 ft 233 kts 138°
2026-04-25 00:53 61.25850 -149.91107 6880 ft 236 kts 133°
2026-04-25 00:53 61.24731 -149.88563 7410 ft 241 kts 135°
2026-04-25 00:53 61.23944 -149.86841 7762 ft 245 kts 135°
2026-04-25 00:53 61.22750 -149.84267 8297 ft 250 kts 136°
2026-04-25 00:54 61.21525 -149.81652 8824 ft 255 kts 137°
2026-04-25 00:54 61.20272 -149.78996 9313 ft 260 kts 137°
2026-04-25 00:54 61.18988 -149.76289 9826 ft 265 kts 138°
2026-04-25 00:54 61.17670 -149.73520 10212 ft 275 kts 138°
2026-04-25 00:55 61.16289 -149.70636 10338 ft 295 kts 138°
2026-04-25 00:55 61.14266 -149.66430 10560 ft 322 kts 138°
2026-04-25 00:55 61.13193 -149.64201 10666 ft 336 kts 138°
2026-04-25 00:55 61.11509 -149.60702 11129 ft 348 kts 138°
2026-04-25 00:56 61.09775 -149.57104 11831 ft 355 kts 138°
2026-04-25 00:56 61.08025 -149.53449 12728 ft 359 kts 139°
2026-04-25 00:56 61.06251 -149.49767 13668 ft 363 kts 139°
2026-04-25 00:56 61.04448 -149.46057 14465 ft 368 kts 139°
2026-04-25 00:57 61.02653 -149.42356 15357 ft 369 kts 139°
2026-04-25 00:57 61.00836 -149.38604 16248 ft 370 kts 139°
2026-04-25 00:57 60.99003 -149.34852 17226 ft 372 kts 139°
2026-04-25 00:57 60.97166 -149.31091 18168 ft 372 kts 140°
2026-04-25 00:58 60.95328 -149.27312 18820 ft 375 kts 140°
2026-04-25 00:58 60.93476 -149.23524 19584 ft 375 kts 140°
2026-04-25 00:58 60.91609 -149.19727 20092 ft 379 kts 141°
2026-04-25 00:58 60.89723 -149.15902 20153 ft 381 kts 141°
2026-04-25 00:59 60.87832 -149.12067 20258 ft 384 kts 141°
2026-04-25 00:59 60.85928 -149.08209 21015 ft 381 kts 140°
2026-04-25 00:59 60.84035 -149.04381 21685 ft 384 kts 141°
2026-04-25 00:59 60.82113 -149.00504 22150 ft 391 kts 141°
2026-04-25 01:00 60.80187 -148.96622 22742 ft 395 kts 142°
2026-04-25 01:00 60.78209 -148.92657 23286 ft 398 kts 142°
2026-04-25 01:00 60.76238 -148.88687 24052 ft 396 kts 142°
2026-04-25 01:00 60.74266 -148.84708 24574 ft 399 kts 142°
2026-04-25 01:01 60.72272 -148.80703 25030 ft 403 kts 142°
2026-04-25 01:01 60.70261 -148.76682 25563 ft 405 kts 143°
2026-04-25 01:01 60.68238 -148.72649 26088 ft 406 kts 143°
2026-04-25 01:01 60.66210 -148.68607 26670 ft 406 kts 143°
2026-04-25 01:02 60.64212 -148.64635 27174 ft 406 kts 143°
2026-04-25 01:02 60.62174 -148.60600 27500 ft 410 kts 143°
2026-04-25 01:02 60.60106 -148.56533 27812 ft 415 kts 143°
2026-04-25 01:02 60.58021 -148.52408 28169 ft 419 kts 143°
2026-04-25 01:03 60.55917 -148.48262 28556 ft 421 kts 143°
2026-04-25 01:03 60.53837 -148.44166 28934 ft 423 kts 143°
2026-04-25 01:03 60.51713 -148.39988 29290 ft 425 kts 143°
2026-04-25 01:03 60.49579 -148.35796 29650 ft 426 kts 143°
2026-04-25 01:04 60.47447 -148.31617 29959 ft 428 kts 143°
2026-04-25 01:04 60.45302 -148.27418 30189 ft 428 kts 143°
2026-04-25 01:04 60.43191 -148.23270 30429 ft 428 kts 144°
2026-04-25 01:04 60.41038 -148.19088 30734 ft 427 kts 144°
2026-04-25 01:05 60.38891 -148.14931 31121 ft 425 kts 144°
2026-04-25 01:05 60.36755 -148.10799 31367 ft 426 kts 144°
2026-04-25 01:05 60.34612 -148.06659 31619 ft 426 kts 144°
2026-04-25 01:05 60.32469 -148.02527 32025 ft 425 kts 144°
2026-04-25 01:06 60.30359 -147.98452 32436 ft 422 kts 144°
2026-04-25 01:06 60.28244 -147.94372 32816 ft 420 kts 144°
2026-04-25 01:06 60.26124 -147.90296 33159 ft 419 kts 144°
2026-04-25 01:06 60.24010 -147.86242 33484 ft 419 kts 144°
2026-04-25 01:07 60.21900 -147.82197 33842 ft 418 kts 144°
2026-04-25 01:07 60.19788 -147.78167 34212 ft 416 kts 144°
2026-04-25 01:07 60.17710 -147.74221 34453 ft 416 kts 144°
2026-04-25 01:07 60.15594 -147.70205 34615 ft 418 kts 144°
2026-04-25 01:08 60.13466 -147.66168 34628 ft 423 kts 144°
2026-04-25 01:08 60.11316 -147.62093 34759 ft 426 kts 144°
2026-04-25 01:08 60.09162 -147.58014 35004 ft 425 kts 144°
2026-04-25 01:08 60.07009 -147.53943 35229 ft 426 kts 144°
2026-04-25 01:09 60.04845 -147.49863 35416 ft 427 kts 144°
2026-04-25 01:09 60.02676 -147.45790 35610 ft 428 kts 144°
2026-04-25 01:09 60.00525 -147.41752 35815 ft 429 kts 144°
2026-04-25 01:09 59.98341 -147.37653 36011 ft 430 kts 144°
2026-04-25 01:10 59.96152 -147.33555 36277 ft 429 kts 144°
2026-04-25 01:10 59.93981 -147.29495 36634 ft 427 kts 144°
2026-04-25 01:10 59.91801 -147.25432 36733 ft 429 kts 144°
2026-04-25 01:11 59.87430 -147.17315 36982 ft 432 kts 144°
2026-04-25 01:11 59.85229 -147.13237 37198 ft 432 kts 144°
2026-04-25 01:11 59.83024 -147.09158 37380 ft 433 kts 144°
2026-04-25 01:11 59.80812 -147.05073 37552 ft 433 kts 144°
2026-04-25 01:12 59.78597 -147.00992 37730 ft 434 kts 144°
2026-04-25 01:12 59.76380 -146.96914 37911 ft 434 kts 144°
2026-04-25 01:12 59.74184 -146.92884 38076 ft 435 kts 144°
2026-04-25 01:12 59.71961 -146.88811 38248 ft 435 kts 144°
2026-04-25 01:13 59.69736 -146.84742 38416 ft 436 kts 144°
2026-04-25 01:13 59.67499 -146.80658 38562 ft 436 kts 144°
2026-04-25 01:13 59.65272 -146.76599 38804 ft 434 kts 144°
2026-04-25 01:13 59.63047 -146.72552 38940 ft 435 kts 144°
2026-04-25 01:14 59.60817 -146.68506 39015 ft 436 kts 144°
2026-04-25 01:14 59.56327 -146.60381 39121 ft 438 kts 144°
2026-04-25 01:15 59.51860 -146.52322 39152 ft 437 kts 144°
2026-04-25 01:15 59.47366 -146.44243 39158 ft 437 kts 144°
2026-04-25 01:16 59.42876 -146.36150 39139 ft 438 kts 141°
2026-04-25 01:16 59.38838 -146.27073 39159 ft 443 kts 135°
2026-04-25 01:17 59.34985 -146.17761 39169 ft 442 kts 136°
2026-04-25 01:17 59.31077 -146.08413 39177 ft 442 kts 136°
2026-04-25 01:18 59.27162 -145.99111 39177 ft 442 kts 136°
2026-04-25 01:18 59.23241 -145.89841 39152 ft 442 kts 136°
2026-04-25 01:19 59.19317 -145.80599 39179 ft 442 kts 136°
2026-04-25 01:19 59.15406 -145.71425 39187 ft 442 kts 136°
2026-04-25 01:20 59.11468 -145.62219 39174 ft 441 kts 136°
2026-04-25 01:20 59.07535 -145.53062 39181 ft 440 kts 136°
2026-04-25 01:21 59.03625 -145.43993 39182 ft 439 kts 136°
2026-04-25 01:21 58.99696 -145.34918 39186 ft 438 kts 136°
2026-04-25 01:22 58.95768 -145.25878 39189 ft 437 kts 136°
2026-04-25 01:22 58.91849 -145.16897 39195 ft 436 kts 136°
2026-04-25 01:23 58.87953 -145.08001 39193 ft 435 kts 136°
2026-04-25 01:23 58.84030 -144.99079 39162 ft 434 kts 136°
2026-04-25 01:24 58.80141 -144.90269 39191 ft 433 kts 136°
2026-04-25 01:24 58.76222 -144.81425 39206 ft 434 kts 136°
2026-04-25 01:25 58.72292 -144.72589 39211 ft 434 kts 136°
2026-04-25 01:25 58.68352 -144.63762 39208 ft 435 kts 136°
2026-04-25 01:26 58.64423 -144.54995 39175 ft 435 kts 135°
2026-04-25 01:26 58.60463 -144.46186 39205 ft 435 kts 136°
2026-04-25 01:27 58.56495 -144.37400 39210 ft 435 kts 136°
2026-04-25 01:27 58.52541 -144.28674 39229 ft 436 kts 136°
2026-04-25 01:28 58.46557 -144.15533 39221 ft 436 kts 136°
2026-04-25 01:28 58.42560 -144.06797 39213 ft 436 kts 135°
2026-04-25 01:29 58.38559 -143.98084 39228 ft 437 kts 136°
2026-04-25 01:29 58.34565 -143.89417 39239 ft 437 kts 136°
2026-04-25 01:30 58.30539 -143.80714 39237 ft 438 kts 136°
2026-04-25 01:30 58.26501 -143.72018 39245 ft 439 kts 136°
2026-04-25 01:31 58.22448 -143.63326 39225 ft 439 kts 135°
2026-04-25 01:31 58.18415 -143.54706 39239 ft 440 kts 135°
2026-04-25 01:32 58.14341 -143.46027 39244 ft 440 kts 136°
2026-04-25 01:32 58.10263 -143.37375 39250 ft 441 kts 136°
2026-04-25 01:33 58.06169 -143.28722 39250 ft 440 kts 136°
2026-04-25 01:33 58.02102 -143.20157 39246 ft 440 kts 135°
2026-04-25 01:34 57.97999 -143.11551 39258 ft 441 kts 135°
2026-04-25 01:34 57.93889 -143.02958 39260 ft 440 kts 136°
2026-04-25 01:35 57.89781 -142.94401 39259 ft 440 kts 136°
2026-04-25 01:35 57.85699 -142.85931 39273 ft 439 kts 136°
2026-04-25 01:36 57.81589 -142.77435 39260 ft 439 kts 135°
2026-04-25 01:36 57.77484 -142.68980 39275 ft 438 kts 135°
2026-04-25 01:37 57.73400 -142.60597 39265 ft 437 kts 135°
2026-04-25 01:37 57.69956 -142.53553 39268 ft 437 kts 136°
2026-04-25 01:38 57.65850 -142.45181 39285 ft 437 kts 136°
2026-04-25 01:38 57.61758 -142.36870 39276 ft 436 kts 135°
2026-04-25 01:39 57.57646 -142.28547 39282 ft 436 kts 135°
2026-04-25 01:39 57.53524 -142.20233 39295 ft 436 kts 135°
2026-04-25 01:40 57.49429 -142.12002 39297 ft 436 kts 135°
2026-04-25 01:40 57.45298 -142.03729 39301 ft 436 kts 136°
2026-04-25 01:41 57.41163 -141.95479 39289 ft 436 kts 135°
2026-04-25 01:41 57.37052 -141.87305 39306 ft 436 kts 135°
2026-04-25 01:42 57.32908 -141.79093 39313 ft 436 kts 135°
2026-04-25 01:42 57.28757 -141.70898 39310 ft 436 kts 136°
2026-04-25 01:43 57.24598 -141.62714 39309 ft 436 kts 136°
2026-04-25 01:43 57.20462 -141.54607 39303 ft 436 kts 135°
2026-04-25 01:44 57.16294 -141.46465 39319 ft 436 kts 136°
2026-04-25 01:44 57.12122 -141.38343 39317 ft 436 kts 136°
2026-04-25 01:45 57.07967 -141.30282 39318 ft 436 kts 136°
2026-04-25 01:45 57.03777 -141.22182 39325 ft 437 kts 136°
2026-04-25 01:46 56.99583 -141.14102 39323 ft 437 kts 136°
2026-04-25 01:46 56.95386 -141.06045 39331 ft 437 kts 136°
2026-04-25 01:47 56.91203 -140.98042 39335 ft 436 kts 136°
2026-04-25 01:47 56.86991 -140.90013 39334 ft 436 kts 136°
2026-04-25 01:48 56.82807 -140.82065 39348 ft 436 kts 136°
2026-04-25 01:48 56.78589 -140.74080 39334 ft 436 kts 136°
2026-04-25 01:49 56.74373 -140.66124 39340 ft 436 kts 136°
2026-04-25 01:49 56.70149 -140.58181 39347 ft 436 kts 136°
2026-04-25 01:50 56.65947 -140.50308 39349 ft 435 kts 136°
2026-04-25 01:50 56.61720 -140.42414 39350 ft 435 kts 136°
2026-04-25 01:51 56.57495 -140.34553 39346 ft 435 kts 136°
2026-04-25 01:51 56.53265 -140.26706 39361 ft 435 kts 136°
2026-04-25 01:52 56.49029 -140.18875 39357 ft 435 kts 136°
2026-04-25 01:52 56.44794 -140.11074 39367 ft 435 kts 136°
2026-04-25 01:53 56.40577 -140.03331 39361 ft 435 kts 136°
2026-04-25 01:53 56.36323 -139.95549 39367 ft 434 kts 136°
2026-04-25 01:54 56.32074 -139.87800 39375 ft 434 kts 136°
2026-04-25 01:54 56.27820 -139.80067 39375 ft 434 kts 136°
2026-04-25 01:55 56.23558 -139.72346 39381 ft 434 kts 136°
2026-04-25 01:55 56.19316 -139.64690 39365 ft 434 kts 136°
2026-04-25 01:56 56.15041 -139.56998 39385 ft 434 kts 136°
2026-04-25 01:56 56.10768 -139.49334 39385 ft 434 kts 136°
2026-04-25 01:57 56.04379 -139.37923 39386 ft 434 kts 136°
2026-04-25 01:58 56.00087 -139.30288 39386 ft 434 kts 136°
2026-04-25 01:58 55.95791 -139.22675 39388 ft 434 kts 136°
2026-04-25 01:59 55.91525 -139.15136 39392 ft 434 kts 136°
2026-04-25 01:59 55.87222 -139.07559 39396 ft 434 kts 136°
2026-04-25 02:00 55.82909 -138.99988 39402 ft 434 kts 136°
2026-04-25 02:00 55.78601 -138.92446 39393 ft 434 kts 136°
2026-04-25 02:01 55.74309 -138.84967 39406 ft 434 kts 136°
2026-04-25 02:01 55.69986 -138.77454 39401 ft 434 kts 136°
2026-04-25 02:02 55.65662 -138.69962 39410 ft 434 kts 136°
2026-04-25 02:02 55.61327 -138.62479 39414 ft 435 kts 136°
2026-04-25 02:03 55.56992 -138.55017 39400 ft 435 kts 136°
2026-04-25 02:03 55.52657 -138.47579 39409 ft 434 kts 136°
2026-04-25 02:04 55.48315 -138.40153 39416 ft 434 kts 136°
2026-04-25 02:04 55.43968 -138.32744 39415 ft 434 kts 136°
2026-04-25 02:05 55.39613 -138.25345 39412 ft 434 kts 136°
2026-04-25 02:05 55.35286 -138.18018 39407 ft 434 kts 136°
2026-04-25 02:06 55.30927 -138.10659 39419 ft 434 kts 136°
2026-04-25 02:06 55.26566 -138.03320 39417 ft 434 kts 136°
2026-04-25 02:07 55.22192 -137.95983 39418 ft 434 kts 136°
2026-04-25 02:07 55.17849 -137.88723 39418 ft 434 kts 136°
2026-04-25 02:08 55.13475 -137.81433 39420 ft 434 kts 136°
2026-04-25 02:08 55.09094 -137.74155 39424 ft 434 kts 136°
2026-04-25 02:09 55.04707 -137.66889 39423 ft 434 kts 136°
2026-04-25 02:09 55.00301 -137.59616 39423 ft 435 kts 136°
2026-04-25 02:10 54.95884 -137.52348 39424 ft 435 kts 136°
2026-04-25 02:10 54.91478 -137.45120 39426 ft 435 kts 136°
2026-04-25 02:11 54.87097 -137.37956 39428 ft 435 kts 137°
2026-04-25 02:11 54.82679 -137.30754 39425 ft 435 kts 137°
2026-04-25 02:12 54.78261 -137.23575 39423 ft 435 kts 137°
2026-04-25 02:12 54.73861 -137.16449 39421 ft 435 kts 136°
2026-04-25 02:13 54.69428 -137.09291 39432 ft 435 kts 137°
2026-04-25 02:13 54.64995 -137.02153 39429 ft 435 kts 137°
2026-04-25 02:14 54.60556 -136.95030 39432 ft 435 kts 137°
2026-04-25 02:14 54.56118 -136.87930 39434 ft 435 kts 137°
2026-04-25 02:15 54.51695 -136.80876 39428 ft 435 kts 136°
2026-04-25 02:15 54.47235 -136.73785 39425 ft 436 kts 137°
2026-04-25 02:16 54.42773 -136.66711 39440 ft 436 kts 137°
2026-04-25 02:16 54.38326 -136.59687 39433 ft 437 kts 137°
2026-04-25 02:17 54.33850 -136.52638 39424 ft 437 kts 137°
2026-04-25 02:17 54.29365 -136.45595 39435 ft 437 kts 137°
2026-04-25 02:18 54.24910 -136.38619 39434 ft 437 kts 137°
2026-04-25 02:18 54.20413 -136.31600 39433 ft 437 kts 137°
2026-04-25 02:19 54.15913 -136.24598 39432 ft 437 kts 137°
2026-04-25 02:19 54.11436 -136.17652 39435 ft 437 kts 137°
2026-04-25 02:20 54.06922 -136.10669 39424 ft 437 kts 137°
2026-04-25 02:20 54.03172 -136.04883 39425 ft 438 kts 137°
2026-04-25 02:21 53.98545 -135.98137 39433 ft 438 kts 143°
2026-04-25 02:21 53.93548 -135.92191 39427 ft 438 kts 144°
2026-04-25 02:22 53.88578 -135.86296 39431 ft 438 kts 143°
2026-04-25 02:22 53.83571 -135.80340 39429 ft 439 kts 143°
2026-04-25 02:23 53.78571 -135.74391 39418 ft 439 kts 143°
2026-04-25 02:23 53.73557 -135.68440 39422 ft 439 kts 143°
2026-04-25 02:24 53.68578 -135.62546 39417 ft 440 kts 143°
2026-04-25 02:24 53.63547 -135.56612 39425 ft 440 kts 143°
2026-04-25 02:25 53.58515 -135.50694 39412 ft 441 kts 143°
2026-04-25 02:25 53.53501 -135.44814 39423 ft 441 kts 143°
2026-04-25 02:26 53.48458 -135.38917 39419 ft 441 kts 143°
2026-04-25 02:26 53.43402 -135.33022 39411 ft 442 kts 143°
2026-04-25 02:27 53.38377 -135.27182 39424 ft 442 kts 143°
2026-04-25 02:27 53.33304 -135.21302 39416 ft 443 kts 143°
2026-04-25 02:28 53.28230 -135.15439 39421 ft 443 kts 143°
2026-04-25 02:28 53.23150 -135.09585 39402 ft 443 kts 143°
2026-04-25 02:29 53.18098 -135.03781 39420 ft 444 kts 143°
2026-04-25 02:29 53.13006 -134.97947 39414 ft 444 kts 143°
2026-04-25 02:30 53.07902 -134.92117 39411 ft 445 kts 143°
2026-04-25 02:30 53.02793 -134.86295 39414 ft 445 kts 143°
2026-04-25 02:31 52.97705 -134.80520 39413 ft 446 kts 143°
2026-04-25 02:31 52.92573 -134.74719 39401 ft 446 kts 143°
2026-04-25 02:32 52.87433 -134.68921 39413 ft 447 kts 143°
2026-04-25 02:32 52.82284 -134.63129 39400 ft 447 kts 143°
2026-04-25 02:33 52.77162 -134.57382 39416 ft 447 kts 144°
2026-04-25 02:33 52.72004 -134.51612 39397 ft 447 kts 144°
2026-04-25 02:34 52.66849 -134.45863 39387 ft 447 kts 144°
2026-04-25 02:34 52.61686 -134.40120 39405 ft 447 kts 144°
2026-04-25 02:35 52.56558 -134.34431 39383 ft 447 kts 144°
2026-04-25 02:35 52.51398 -134.28726 39391 ft 446 kts 144°
2026-04-25 02:36 52.46232 -134.23032 39383 ft 446 kts 144°
2026-04-25 02:36 52.41099 -134.17388 39390 ft 446 kts 144°
2026-04-25 02:37 52.35930 -134.11722 39391 ft 446 kts 143°
2026-04-25 02:37 52.30756 -134.06067 39381 ft 447 kts 144°
2026-04-25 02:38 52.25607 -134.00458 39377 ft 447 kts 144°
2026-04-25 02:38 52.20427 -133.94821 39378 ft 447 kts 143°
2026-04-25 02:39 52.15230 -133.89185 39386 ft 448 kts 144°
2026-04-25 02:39 52.10021 -133.83563 39381 ft 449 kts 143°
2026-04-25 02:40 52.04841 -133.77972 39370 ft 449 kts 143°
2026-04-25 02:40 51.99622 -133.72347 39366 ft 450 kts 143°
2026-04-25 02:41 51.94395 -133.66744 39356 ft 450 kts 144°
2026-04-25 02:41 51.89193 -133.61201 39361 ft 450 kts 144°
2026-04-25 02:42 51.83955 -133.55626 39362 ft 450 kts 144°
2026-04-25 02:42 51.78719 -133.50049 39356 ft 450 kts 144°
2026-04-25 02:43 51.73509 -133.44537 39344 ft 450 kts 144°
2026-04-25 02:43 51.68270 -133.38998 39350 ft 450 kts 144°
2026-04-25 02:44 51.63024 -133.33462 39344 ft 450 kts 143°
2026-04-25 02:44 51.57768 -133.27928 39330 ft 451 kts 144°
2026-04-25 02:45 51.52509 -133.22413 39350 ft 451 kts 144°
2026-04-25 02:45 51.47275 -133.16942 39335 ft 452 kts 144°
2026-04-25 02:46 51.41988 -133.11427 39340 ft 454 kts 143°
2026-04-25 02:46 51.36679 -133.05909 39335 ft 455 kts 144°
2026-04-25 02:47 51.31392 -133.00438 39319 ft 455 kts 144°
2026-04-25 02:47 51.26072 -132.94933 39316 ft 455 kts 143°
2026-04-25 02:48 51.20747 -132.89432 39318 ft 456 kts 144°
2026-04-25 02:48 51.15413 -132.83958 39317 ft 456 kts 144°
2026-04-25 02:49 51.10108 -132.78512 39312 ft 455 kts 144°
2026-04-25 02:49 51.04778 -132.73063 39317 ft 456 kts 144°
2026-04-25 02:50 50.99425 -132.67614 39307 ft 456 kts 144°
2026-04-25 02:50 50.94101 -132.62209 39315 ft 457 kts 144°
2026-04-25 02:51 50.88726 -132.56773 39308 ft 458 kts 144°
2026-04-25 02:51 50.83335 -132.51328 39305 ft 459 kts 143°
2026-04-25 02:52 50.77930 -132.45885 39309 ft 461 kts 144°
2026-04-25 02:52 50.72526 -132.40480 39306 ft 463 kts 144°
2026-04-25 02:53 50.67078 -132.35030 39298 ft 464 kts 145°
2026-04-25 02:53 50.61609 -132.29569 39307 ft 464 kts 144°
2026-04-25 02:54 50.56189 -132.24156 39302 ft 464 kts 144°
2026-04-25 02:54 50.50731 -132.18733 39302 ft 464 kts 144°
2026-04-25 02:55 50.45271 -132.13325 39292 ft 464 kts 144°
2026-04-25 02:55 50.39799 -132.07921 39289 ft 464 kts 144°
2026-04-25 02:56 50.34323 -132.02539 39302 ft 465 kts 144°
2026-04-25 02:56 50.28867 -131.97181 39294 ft 465 kts 144°
2026-04-25 02:57 50.23372 -131.91800 39294 ft 466 kts 144°
2026-04-25 02:57 50.17854 -131.86464 39282 ft 468 kts 146°
2026-04-25 02:58 50.12223 -131.81449 39287 ft 469 kts 147°
2026-04-25 02:58 50.06524 -131.76400 39287 ft 471 kts 147°
2026-04-25 02:59 50.00868 -131.71339 39285 ft 471 kts 148°
2026-04-25 02:59 49.95155 -131.66263 39282 ft 473 kts 148°
2026-04-25 03:00 49.89409 -131.61208 39279 ft 474 kts 148°
2026-04-25 03:00 49.83709 -131.56181 39282 ft 474 kts 148°
2026-04-25 03:01 49.77954 -131.51121 39278 ft 475 kts 148°
2026-04-25 03:01 49.72184 -131.46086 39273 ft 476 kts 147°
2026-04-25 03:02 49.66400 -131.41036 39275 ft 477 kts 147°
2026-04-25 03:02 49.60644 -131.36024 39263 ft 478 kts 148°
2026-04-25 03:03 49.54836 -131.30982 39266 ft 478 kts 148°
2026-04-25 03:03 49.49027 -131.25939 39266 ft 479 kts 148°
2026-04-25 03:04 49.43247 -131.20952 39263 ft 479 kts 148°
2026-04-25 03:04 49.37419 -131.15933 39260 ft 479 kts 148°
2026-04-25 03:05 49.28665 -131.08416 39256 ft 481 kts 148°
2026-04-25 03:05 49.22845 -131.03438 39255 ft 481 kts 149°
2026-04-25 03:06 49.16985 -130.98441 39242 ft 481 kts 148°
2026-04-25 03:06 49.11120 -130.93446 39253 ft 482 kts 149°
2026-04-25 03:07 49.06245 -130.89308 39251 ft 482 kts 149°
2026-04-25 03:07 49.00370 -130.84328 39255 ft 483 kts 149°
2026-04-25 03:08 48.94516 -130.79387 39244 ft 483 kts 149°
2026-04-25 03:08 48.88622 -130.74438 39242 ft 484 kts 149°
2026-04-25 03:09 48.82706 -130.69484 39237 ft 485 kts 149°
2026-04-25 03:09 48.76819 -130.64564 39234 ft 486 kts 149°
2026-04-25 03:10 48.70890 -130.59615 39245 ft 486 kts 149°
2026-04-25 03:10 48.64954 -130.54683 39236 ft 486 kts 149°
2026-04-25 03:11 48.59050 -130.49789 39233 ft 486 kts 149°
2026-04-25 03:11 48.53115 -130.44875 39220 ft 486 kts 149°
2026-04-25 03:12 48.47164 -130.39957 39233 ft 486 kts 149°
2026-04-25 03:12 48.41213 -130.35072 39229 ft 487 kts 149°
2026-04-25 03:13 48.35306 -130.30218 39225 ft 487 kts 150°
2026-04-25 03:13 48.29342 -130.25343 39223 ft 487 kts 150°
2026-04-25 03:14 48.23383 -130.20478 39223 ft 487 kts 150°
2026-04-25 03:14 48.17425 -130.15629 39221 ft 487 kts 150°
2026-04-25 03:15 48.11450 -130.10780 39216 ft 487 kts 150°
2026-04-25 03:15 48.05478 -130.05935 39220 ft 488 kts 150°
2026-04-25 03:16 47.99503 -130.01103 39212 ft 488 kts 150°
2026-04-25 03:16 47.93555 -129.96308 39211 ft 488 kts 150°
2026-04-25 03:17 47.87570 -129.91494 39207 ft 489 kts 150°
2026-04-25 03:17 47.81573 -129.86687 39207 ft 489 kts 150°
2026-04-25 03:18 47.75568 -129.81883 39209 ft 489 kts 150°
2026-04-25 03:18 47.69595 -129.77117 39202 ft 489 kts 150°
2026-04-25 03:19 47.63585 -129.72332 39201 ft 490 kts 150°
2026-04-25 03:19 47.57562 -129.67546 39198 ft 490 kts 150°
2026-04-25 03:20 47.51586 -129.62808 39199 ft 490 kts 150°
2026-04-25 03:20 47.45567 -129.58046 39198 ft 490 kts 150°
2026-04-25 03:21 47.39543 -129.53294 39196 ft 491 kts 150°
2026-04-25 03:21 47.33502 -129.48541 39191 ft 491 kts 150°
2026-04-25 03:22 47.27460 -129.43799 39183 ft 491 kts 150°
2026-04-25 03:22 47.21417 -129.39066 39187 ft 491 kts 151°
2026-04-25 03:23 47.15373 -129.34351 39188 ft 492 kts 151°
2026-04-25 03:23 47.09319 -129.29638 39185 ft 492 kts 151°
2026-04-25 03:24 47.03311 -129.24971 39184 ft 492 kts 151°
2026-04-25 03:24 46.97249 -129.20275 39179 ft 493 kts 151°
2026-04-25 03:25 46.91185 -129.15589 39177 ft 493 kts 151°
2026-04-25 03:25 46.85105 -129.10904 39181 ft 493 kts 151°
2026-04-25 03:26 46.79010 -129.06218 39175 ft 494 kts 151°
2026-04-25 03:26 46.72953 -129.01574 39175 ft 495 kts 151°
2026-04-25 03:27 46.66849 -128.96906 39179 ft 495 kts 151°
2026-04-25 03:27 46.60734 -128.92242 39169 ft 496 kts 151°
2026-04-25 03:28 46.54608 -128.87581 39170 ft 496 kts 151°
2026-04-25 03:28 46.48513 -128.82956 39169 ft 497 kts 151°
2026-04-25 03:29 46.42376 -128.78311 39166 ft 497 kts 151°
2026-04-25 03:29 46.36233 -128.73673 39166 ft 497 kts 151°
2026-04-25 03:30 46.30090 -128.69046 39166 ft 497 kts 151°
2026-04-25 03:30 46.23947 -128.64432 39164 ft 497 kts 152°
2026-04-25 03:31 46.17790 -128.59819 39162 ft 498 kts 152°
2026-04-25 03:31 46.11637 -128.55220 39156 ft 498 kts 152°
2026-04-25 03:32 46.05482 -128.50632 39154 ft 498 kts 152°
2026-04-25 03:32 45.99360 -128.46080 39159 ft 498 kts 152°
2026-04-25 03:33 45.93194 -128.41506 39152 ft 498 kts 152°
2026-04-25 03:33 45.87030 -128.36946 39156 ft 498 kts 152°
2026-04-25 03:34 45.80865 -128.32396 39155 ft 498 kts 152°
2026-04-25 03:34 45.74726 -128.27877 39158 ft 498 kts 152°
2026-04-25 03:35 45.68546 -128.23339 39148 ft 498 kts 152°
2026-04-25 03:35 45.62364 -128.18811 39149 ft 499 kts 152°
2026-04-25 03:36 45.56209 -128.14313 39146 ft 499 kts 152°
2026-04-25 03:36 45.50016 -128.09799 39145 ft 499 kts 152°
2026-04-25 03:37 45.43828 -128.05299 39142 ft 499 kts 152°
2026-04-25 03:37 45.37645 -128.00816 39140 ft 498 kts 152°
2026-04-25 03:38 45.31457 -127.96340 39139 ft 498 kts 152°
2026-04-25 03:38 45.25316 -127.91908 39137 ft 498 kts 153°
2026-04-25 03:39 45.19125 -127.87450 39137 ft 500 kts 153°
2026-04-25 03:39 45.12833 -127.82932 39141 ft 506 kts 153°
2026-04-25 03:40 45.06508 -127.78400 39137 ft 510 kts 153°
2026-04-25 03:40 45.00139 -127.73850 39137 ft 514 kts 153°
2026-04-25 03:41 44.93729 -127.69281 39129 ft 517 kts 153°
2026-04-25 03:41 44.87289 -127.64702 39112 ft 518 kts 153°
2026-04-25 03:42 44.80852 -127.60138 39117 ft 517 kts 153°
2026-04-25 03:42 44.74436 -127.55599 39120 ft 515 kts 153°
2026-04-25 03:43 44.68064 -127.51103 39112 ft 514 kts 153°
2026-04-25 03:43 44.61664 -127.46598 39117 ft 513 kts 153°
2026-04-25 03:44 44.56278 -127.42815 39117 ft 513 kts 153°
2026-04-25 03:44 44.49926 -127.38365 39112 ft 512 kts 153°
2026-04-25 03:45 44.43536 -127.33898 39109 ft 512 kts 153°
2026-04-25 03:45 44.37142 -127.29440 39109 ft 513 kts 153°
2026-04-25 03:46 44.30731 -127.24981 39092 ft 513 kts 153°
2026-04-25 03:46 44.24374 -127.20570 39105 ft 512 kts 153°
2026-04-25 03:47 44.17994 -127.16154 39099 ft 512 kts 153°
2026-04-25 03:47 44.11606 -127.11743 39098 ft 512 kts 153°
2026-04-25 03:48 44.05202 -127.07332 39089 ft 512 kts 153°
2026-04-25 03:48 43.98808 -127.02938 39086 ft 513 kts 154°
2026-04-25 03:49 43.92405 -126.98548 39079 ft 513 kts 154°
2026-04-25 03:49 43.85946 -126.94132 39086 ft 514 kts 154°
2026-04-25 03:50 43.79519 -126.89747 39074 ft 514 kts 154°
2026-04-25 03:50 43.73094 -126.85375 39072 ft 513 kts 154°
2026-04-25 03:51 43.66685 -126.81024 39070 ft 512 kts 154°
2026-04-25 03:51 43.60319 -126.76711 39066 ft 512 kts 154°
2026-04-25 03:52 43.53914 -126.72382 39061 ft 512 kts 154°
2026-04-25 03:52 43.47490 -126.68050 39059 ft 512 kts 154°
2026-04-25 03:53 43.41056 -126.63728 39055 ft 512 kts 155°
2026-04-25 03:53 43.34581 -126.59414 39052 ft 511 kts 155°
2026-04-25 03:54 43.28170 -126.55152 39051 ft 511 kts 155°
2026-04-25 03:54 43.21770 -126.50905 39047 ft 510 kts 155°
2026-04-25 03:55 43.15428 -126.46705 39038 ft 508 kts 155°
2026-04-25 03:55 43.09220 -126.42602 39045 ft 506 kts 155°
2026-04-25 03:56 43.02865 -126.38412 39039 ft 506 kts 155°
2026-04-25 03:56 42.96556 -126.34265 39039 ft 506 kts 155°
2026-04-25 03:57 42.90149 -126.30061 39035 ft 507 kts 155°
2026-04-25 03:57 42.83775 -126.25885 39035 ft 507 kts 155°
2026-04-25 03:58 42.77412 -126.21725 39027 ft 506 kts 155°
2026-04-25 03:58 42.71134 -126.17391 39028 ft 506 kts 150°
2026-04-25 03:59 42.65356 -126.11896 39022 ft 506 kts 144°
2026-04-25 03:59 42.59647 -126.06170 39025 ft 506 kts 144°
2026-04-25 04:00 42.53963 -126.00522 39028 ft 506 kts 145°
2026-04-25 04:00 42.48292 -125.94948 39023 ft 506 kts 145°
2026-04-25 04:01 42.42578 -125.89362 39017 ft 505 kts 145°
2026-04-25 04:01 42.36873 -125.83789 39009 ft 505 kts 145°
2026-04-25 04:02 42.31172 -125.78238 39001 ft 505 kts 145°
2026-04-25 04:02 42.25465 -125.72691 39005 ft 504 kts 146°
2026-04-25 04:03 42.19782 -125.67173 39009 ft 503 kts 145°
2026-04-25 04:03 42.14075 -125.61641 39008 ft 502 kts 146°
2026-04-25 04:04 42.08376 -125.56137 39001 ft 502 kts 146°
2026-04-25 04:04 42.02693 -125.50662 38993 ft 502 kts 146°
2026-04-25 04:05 41.96973 -125.45166 38987 ft 502 kts 146°
2026-04-25 04:05 41.92238 -125.40628 38991 ft 502 kts 146°
2026-04-25 04:06 41.86558 -125.35183 38991 ft 501 kts 146°
2026-04-25 04:06 41.80830 -125.29711 38993 ft 500 kts 146°
2026-04-25 04:07 41.75154 -125.24298 38988 ft 500 kts 146°
2026-04-25 04:07 41.69573 -125.18983 38978 ft 492 kts 146°
2026-04-25 04:08 41.63966 -125.13666 38985 ft 493 kts 146°
2026-04-25 04:08 41.58358 -125.08359 38984 ft 494 kts 146°
2026-04-25 04:09 41.52745 -125.03052 38987 ft 494 kts 146°
2026-04-25 04:09 41.47136 -124.97762 38982 ft 494 kts 147°
2026-04-25 04:10 41.41552 -124.92507 38985 ft 493 kts 147°
2026-04-25 04:10 41.35934 -124.87233 38987 ft 493 kts 147°
2026-04-25 04:11 41.27464 -124.79302 38987 ft 494 kts 147°
2026-04-25 04:12 41.21779 -124.73993 38991 ft 494 kts 147°
2026-04-25 04:12 41.16334 -124.68919 38990 ft 494 kts 147°
2026-04-25 04:13 41.10727 -124.63704 38992 ft 495 kts 147°
2026-04-25 04:13 41.05082 -124.58465 38992 ft 495 kts 147°
2026-04-25 04:14 40.99436 -124.53237 38991 ft 495 kts 147°
2026-04-25 04:14 40.93780 -124.48011 38996 ft 495 kts 147°
2026-04-25 04:15 40.88105 -124.42778 39002 ft 499 kts 147°
2026-04-25 04:15 40.82384 -124.37516 38995 ft 502 kts 147°
2026-04-25 04:16 40.76636 -124.32233 38997 ft 504 kts 148°
2026-04-25 04:16 40.70909 -124.26986 38989 ft 504 kts 148°
2026-04-25 04:17 40.64985 -124.22083 39000 ft 500 kts 156°
2026-04-25 04:17 40.58671 -124.18264 39002 ft 498 kts 159°
2026-04-25 04:18 40.52388 -124.14532 38995 ft 498 kts 159°
2026-04-25 04:18 40.46082 -124.10745 39000 ft 498 kts 158°
2026-04-25 04:19 40.39786 -124.06937 38993 ft 498 kts 158°
2026-04-25 04:19 40.33483 -124.03128 38980 ft 498 kts 159°
2026-04-25 04:20 40.27172 -123.99324 38976 ft 499 kts 159°
2026-04-25 04:20 40.20857 -123.95526 38965 ft 498 kts 159°
2026-04-25 04:21 40.14549 -123.91743 38961 ft 499 kts 159°
2026-04-25 04:21 40.08477 -123.87302 38953 ft 504 kts 148°
2026-04-25 04:22 40.02765 -123.81970 38952 ft 504 kts 148°
2026-04-25 04:22 39.97042 -123.76653 38951 ft 504 kts 148°
2026-04-25 04:23 39.91334 -123.71413 38943 ft 505 kts 148°
2026-04-25 04:23 39.85571 -123.66163 38942 ft 506 kts 148°
2026-04-25 04:24 39.79792 -123.60912 38924 ft 506 kts 148°
2026-04-25 04:24 39.74026 -123.55681 38949 ft 505 kts 148°
2026-04-25 04:25 39.68252 -123.50452 38933 ft 504 kts 148°
2026-04-25 04:25 39.62491 -123.45247 38935 ft 504 kts 148°
2026-04-25 04:26 39.56762 -123.40080 38926 ft 504 kts 148°
2026-04-25 04:26 39.50997 -123.34892 38926 ft 504 kts 149°
2026-04-25 04:27 39.45238 -123.29718 38924 ft 503 kts 149°
2026-04-25 04:27 39.39470 -123.24548 38922 ft 503 kts 149°
2026-04-25 04:28 39.33740 -123.19423 38936 ft 503 kts 149°
2026-04-25 04:28 39.27953 -123.14256 38945 ft 502 kts 149°
2026-04-25 04:29 39.22239 -123.09167 38946 ft 502 kts 149°
2026-04-25 04:29 39.16490 -123.04056 38931 ft 501 kts 149°
2026-04-25 04:30 39.10737 -122.98951 38940 ft 501 kts 149°
2026-04-25 04:30 39.04994 -122.93866 38923 ft 501 kts 149°
2026-04-25 04:31 38.99249 -122.88789 38929 ft 500 kts 149°
2026-04-25 04:31 38.93500 -122.83719 38921 ft 501 kts 149°
2026-04-25 04:32 38.87778 -122.78683 38909 ft 501 kts 149°
2026-04-25 04:32 38.82009 -122.73616 38913 ft 501 kts 149°
2026-04-25 04:33 38.76254 -122.68570 38922 ft 501 kts 149°
2026-04-25 04:33 38.70536 -122.63565 38923 ft 500 kts 150°
2026-04-25 04:34 38.64776 -122.58538 38925 ft 500 kts 150°
2026-04-25 04:34 38.59012 -122.53516 38918 ft 501 kts 150°
2026-04-25 04:35 38.53275 -122.48526 38921 ft 501 kts 150°
2026-04-25 04:35 38.47500 -122.43513 38935 ft 501 kts 150°
2026-04-25 04:36 38.41722 -122.38507 38934 ft 501 kts 150°
2026-04-25 04:36 38.35942 -122.33510 38958 ft 501 kts 150°
2026-04-25 04:37 38.30162 -122.28521 38962 ft 502 kts 150°
2026-04-25 04:37 38.24402 -122.23560 38967 ft 502 kts 151°
2026-04-25 04:38 38.18606 -122.18579 38954 ft 503 kts 151°
2026-04-25 04:38 38.12799 -122.13596 38962 ft 503 kts 151°
2026-04-25 04:39 38.06986 -122.08620 38961 ft 503 kts 151°
2026-04-25 04:39 38.01214 -122.03686 38970 ft 503 kts 151°
2026-04-25 04:40 37.95392 -121.98721 38912 ft 503 kts 152°
2026-04-25 04:40 37.89578 -121.93774 38952 ft 503 kts 152°
2026-04-25 04:41 37.83797 -121.88863 38947 ft 504 kts 152°
2026-04-25 04:41 37.77974 -121.83923 38962 ft 504 kts 152°
2026-04-25 04:42 37.72143 -121.78988 38980 ft 504 kts 152°
2026-04-25 04:42 37.66301 -121.74054 38975 ft 505 kts 152°
2026-04-25 04:43 37.60453 -121.69125 38958 ft 505 kts 153°
2026-04-25 04:43 37.54605 -121.64204 38968 ft 506 kts 153°
2026-04-25 04:44 37.48720 -121.59262 38937 ft 507 kts 153°
2026-04-25 04:44 37.42841 -121.54333 38942 ft 508 kts 153°
2026-04-25 04:45 37.36975 -121.49425 38949 ft 508 kts 153°
2026-04-25 04:45 37.32070 -121.45329 38948 ft 508 kts 153°
2026-04-25 04:46 37.26174 -121.40413 38920 ft 509 kts 154°
2026-04-25 04:46 37.20263 -121.35493 38960 ft 509 kts 154°
2026-04-25 04:47 37.14349 -121.30583 38955 ft 509 kts 154°
2026-04-25 04:47 37.08473 -121.25713 38975 ft 509 kts 154°
2026-04-25 04:48 37.02551 -121.20811 38969 ft 511 kts 154°
2026-04-25 04:48 36.96624 -121.15914 38962 ft 510 kts 155°
2026-04-25 04:49 36.90685 -121.11021 38975 ft 510 kts 155°
2026-04-25 04:49 36.84744 -121.06136 38964 ft 511 kts 155°
2026-04-25 04:50 36.78786 -121.01245 38939 ft 512 kts 155°
2026-04-25 04:50 36.72856 -120.96384 38941 ft 511 kts 155°
2026-04-25 04:51 36.66906 -120.91514 38926 ft 511 kts 155°
2026-04-25 04:51 36.60959 -120.86658 38926 ft 511 kts 155°
2026-04-25 04:52 36.55013 -120.81814 38941 ft 511 kts 155°
2026-04-25 04:52 36.49057 -120.76974 38939 ft 511 kts 155°
2026-04-25 04:53 36.43097 -120.72132 38927 ft 511 kts 155°
2026-04-25 04:53 36.37118 -120.67284 38928 ft 511 kts 155°
2026-04-25 04:54 36.31210 -120.62504 38915 ft 511 kts 155°
2026-04-25 04:54 36.25252 -120.57693 38915 ft 510 kts 155°
2026-04-25 04:55 36.19300 -120.52899 38944 ft 510 kts 155°
2026-04-25 04:55 36.13362 -120.48113 38932 ft 508 kts 155°
2026-04-25 04:56 36.07414 -120.43340 38938 ft 509 kts 156°
2026-04-25 04:56 36.01467 -120.38582 38913 ft 510 kts 156°
2026-04-25 04:57 35.95513 -120.33812 38920 ft 510 kts 156°
2026-04-25 04:57 35.89541 -120.29047 38936 ft 511 kts 156°
2026-04-25 04:58 35.83556 -120.24275 38932 ft 512 kts 156°
2026-04-25 04:58 35.77561 -120.19504 38931 ft 513 kts 156°
2026-04-25 04:59 35.71566 -120.14739 38918 ft 513 kts 156°
2026-04-25 04:59 35.65551 -120.09977 38933 ft 513 kts 157°
2026-04-25 05:00 35.59486 -120.05370 38921 ft 511 kts 158°
2026-04-25 05:00 35.53405 -120.00829 38919 ft 510 kts 158°
2026-04-25 05:01 35.47336 -119.96275 38932 ft 511 kts 158°
2026-04-25 05:01 35.41301 -119.91736 38907 ft 510 kts 158°
2026-04-25 05:02 35.35258 -119.87197 38915 ft 509 kts 159°
2026-04-25 05:02 35.29219 -119.82674 38909 ft 508 kts 158°
2026-04-25 05:03 35.23383 -119.77627 38784 ft 514 kts 152°
2026-04-25 05:03 35.20593 -119.74919 38234 ft 510 kts 152°
2026-04-25 05:03 35.17835 -119.72215 37667 ft 505 kts 152°
2026-04-25 05:03 35.15096 -119.69567 37100 ft 500 kts 152°
2026-04-25 05:04 35.12361 -119.66971 36578 ft 495 kts 152°
2026-04-25 05:04 35.09647 -119.64428 36072 ft 483 kts 152°
2026-04-25 05:04 35.07028 -119.61979 35182 ft 467 kts 152°
2026-04-25 05:04 35.04467 -119.59602 33995 ft 458 kts 152°
2026-04-25 05:05 35.01970 -119.57295 32668 ft 453 kts 151°
2026-04-25 05:05 34.99467 -119.54985 31288 ft 449 kts 150°
2026-04-25 05:05 34.96983 -119.52690 29958 ft 447 kts 150°
2026-04-25 05:05 34.94510 -119.50398 28503 ft 444 kts 149°
2026-04-25 05:06 34.92061 -119.48129 27349 ft 444 kts 149°
2026-04-25 05:06 34.89568 -119.45853 26629 ft 447 kts 150°
2026-04-25 05:06 34.87069 -119.43614 26221 ft 441 kts 150°
2026-04-25 05:06 34.84612 -119.41422 25950 ft 432 kts 150°
2026-04-25 05:07 34.82238 -119.39305 25718 ft 423 kts 150°
2026-04-25 05:07 34.79871 -119.37194 25401 ft 417 kts 150°
2026-04-25 05:07 34.77537 -119.35112 24997 ft 415 kts 150°
2026-04-25 05:07 34.75208 -119.33036 24561 ft 414 kts 150°
2026-04-25 05:08 34.72882 -119.30982 24140 ft 412 kts 150°
2026-04-25 05:08 34.70558 -119.28955 23759 ft 409 kts 150°
2026-04-25 05:08 34.68251 -119.26945 23362 ft 406 kts 150°
2026-04-25 05:08 34.65956 -119.24942 22916 ft 404 kts 150°
2026-04-25 05:09 34.63679 -119.22961 22448 ft 403 kts 150°
2026-04-25 05:09 34.61428 -119.21023 22008 ft 401 kts 150°
2026-04-25 05:09 34.59157 -119.19068 21649 ft 397 kts 150°
2026-04-25 05:09 34.56911 -119.17134 21292 ft 393 kts 150°
2026-04-25 05:10 34.54698 -119.15207 20935 ft 391 kts 149°
2026-04-25 05:10 34.52505 -119.13262 20580 ft 388 kts 149°
2026-04-25 05:10 34.50357 -119.11351 20229 ft 386 kts 149°
2026-04-25 05:10 34.48197 -119.09432 19913 ft 382 kts 149°
2026-04-25 05:11 34.46082 -119.07556 19473 ft 368 kts 149°
2026-04-25 05:11 34.44001 -119.05715 18598 ft 369 kts 149°
2026-04-25 05:11 34.41900 -119.03894 18099 ft 372 kts 149°
2026-04-25 05:12 34.37722 -119.00281 17398 ft 364 kts 149°
2026-04-25 05:12 34.35666 -118.98503 17016 ft 361 kts 149°
2026-04-25 05:12 34.33654 -118.96756 16635 ft 359 kts 148°
2026-04-25 05:12 34.31653 -118.94950 16221 ft 358 kts 147°
2026-04-25 05:13 34.29665 -118.93130 15780 ft 357 kts 147°
2026-04-25 05:13 34.27682 -118.91322 15402 ft 355 kts 148°
2026-04-25 05:13 34.25686 -118.89511 15022 ft 352 kts 148°
2026-04-25 05:13 34.23786 -118.87772 14611 ft 338 kts 147°
2026-04-25 05:14 34.21846 -118.85990 14182 ft 356 kts 147°
2026-04-25 05:14 34.19884 -118.84186 13751 ft 346 kts 147°
2026-04-25 05:14 34.18021 -118.82467 13259 ft 324 kts 147°
2026-04-25 05:15 34.14558 -118.79071 12569 ft 318 kts 142°
2026-04-25 05:15 34.12932 -118.77272 12224 ft 315 kts 141°
2026-04-25 05:15 34.11324 -118.75485 11913 ft 313 kts 141°
2026-04-25 05:15 34.09715 -118.73711 11609 ft 312 kts 141°
2026-04-25 05:16 34.08109 -118.71953 11288 ft 311 kts 141°
2026-04-25 05:16 34.06508 -118.70220 11006 ft 308 kts 141°
2026-04-25 05:16 34.04915 -118.68492 10681 ft 308 kts 141°
2026-04-25 05:16 34.03461 -118.66654 10357 ft 301 kts 124°
2026-04-25 05:17 34.02726 -118.64311 10077 ft 298 kts 99°
2026-04-25 05:17 34.02512 -118.61846 9785 ft 293 kts 96°
2026-04-25 05:17 34.02374 -118.60230 9566 ft 292 kts 97°
2026-04-25 05:17 34.02150 -118.57794 9259 ft 290 kts 97°
2026-04-25 05:18 34.01926 -118.55395 8970 ft 287 kts 97°
2026-04-25 05:18 34.01704 -118.53012 8720 ft 283 kts 97°
2026-04-25 05:18 34.01485 -118.50667 8474 ft 279 kts 97°
2026-04-25 05:18 34.01267 -118.48357 8227 ft 275 kts 97°
2026-04-25 05:19 34.01014 -118.46038 8002 ft 266 kts 104°
2026-04-25 05:19 34.00270 -118.44123 7854 ft 248 kts 126°
2026-04-25 05:19 33.99313 -118.42399 7764 ft 246 kts 124°
2026-04-25 05:19 33.98391 -118.40656 7637 ft 246 kts 124°
2026-04-25 05:20 33.97485 -118.38927 7576 ft 242 kts 123°
2026-04-25 05:20 33.96584 -118.37206 7427 ft 242 kts 123°
2026-04-25 05:20 33.95687 -118.35488 7312 ft 241 kts 124°
2026-04-25 05:20 33.94789 -118.33772 7184 ft 241 kts 124°
2026-04-25 05:21 33.93897 -118.32066 7081 ft 240 kts 124°
2026-04-25 05:21 33.93107 -118.30302 6929 ft 239 kts 111°
2026-04-25 05:21 33.92616 -118.28385 6784 ft 239 kts 106°
2026-04-25 05:21 33.92164 -118.26429 6631 ft 240 kts 107°
2026-04-25 05:22 33.91704 -118.24510 6481 ft 241 kts 107°
2026-04-25 05:22 33.91224 -118.22568 6324 ft 242 kts 107°
2026-04-25 05:22 33.90735 -118.20617 6139 ft 243 kts 108°
2026-04-25 05:22 33.90309 -118.18685 5967 ft 240 kts 97°
2026-04-25 05:23 33.90371 -118.16636 5639 ft 242 kts 83°
2026-04-25 05:23 33.90609 -118.14633 5280 ft 243 kts 82°
2026-04-25 05:23 33.90846 -118.12615 4917 ft 244 kts 83°
2026-04-25 05:23 33.91064 -118.10594 4585 ft 242 kts 83°
2026-04-25 05:24 33.91264 -118.08653 4256 ft 228 kts 83°
2026-04-25 05:24 33.91449 -118.06813 4058 ft 218 kts 83°
2026-04-25 05:24 33.91639 -118.04970 4032 ft 222 kts 82°
2026-04-25 05:24 33.91909 -118.03163 3987 ft 216 kts 68°
2026-04-25 05:25 33.92807 -118.01760 3995 ft 214 kts 33°
2026-04-25 05:25 33.94206 -118.01238 4001 ft 212 kts 357°
2026-04-25 05:25 33.95568 -118.01772 4007 ft 207 kts 323°
2026-04-25 05:25 33.96401 -118.03139 3991 ft 203 kts 289°
2026-04-25 05:26 33.96754 -118.04796 4001 ft 205 kts 277°
2026-04-25 05:26 33.96725 -118.06506 4001 ft 204 kts 266°
2026-04-25 05:26 33.96680 -118.08238 3967 ft 208 kts 267°
2026-04-25 05:26 33.96589 -118.09956 3956 ft 201 kts 264°
2026-04-25 05:27 33.96448 -118.11600 3948 ft 191 kts 263°
2026-04-25 05:27 33.96295 -118.13165 3974 ft 184 kts 263°
2026-04-25 05:27 33.96139 -118.14704 3952 ft 188 kts 262°
2026-04-25 05:27 33.95979 -118.16276 3700 ft 192 kts 262°
2026-04-25 05:28 33.95817 -118.17867 3458 ft 190 kts 262°
2026-04-25 05:28 33.95657 -118.19433 3211 ft 187 kts 262°
2026-04-25 05:28 33.95498 -118.20989 2969 ft 187 kts 262°
2026-04-25 05:28 33.95339 -118.22556 2732 ft 188 kts 261°
2026-04-25 05:29 33.95179 -118.24121 2473 ft 188 kts 262°
2026-04-25 05:29 33.95020 -118.25679 2208 ft 187 kts 261°
2026-04-25 05:29 33.94866 -118.27197 1980 ft 175 kts 261°
2026-04-25 05:29 33.94723 -118.28603 1735 ft 164 kts 261°
2026-04-25 05:30 33.94589 -118.29912 1508 ft 151 kts 261°
2026-04-25 05:30 33.94465 -118.31118 1337 ft 145 kts 261°
2026-04-25 05:30 33.94344 -118.32308 1136 ft 141 kts 261°
2026-04-25 05:30 33.94221 -118.33502 948 ft 141 kts 261°
2026-04-25 05:31 33.94103 -118.34663 743 ft 139 kts 262°
2026-04-25 05:31 33.93988 -118.35793 558 ft 137 kts 262°
2026-04-25 05:31 33.93872 -118.36938 369 ft 133 kts 262°
2026-04-25 05:31 33.93755 -118.38034 218 ft 133 kts 262°
2026-04-25 05:32 33.93646 -118.39129 128 ft 124 kts 263°
2026-04-25 05:32 33.93565 -118.39941 125 ft 65 kts 263°
2026-04-25 05:32 33.93530 -118.40368 127 ft 43 kts 270°
2026-04-25 05:32 33.93573 -118.40580 126 ft 15 kts 285°
2026-04-25 05:33 33.93594 -118.40699 125 ft 13 kts 272°
2026-04-25 05:33 33.93591 -118.40796 130 ft 6 kts 267°
2026-04-25 05:33 33.93597 -118.40842 126 ft 6 kts 294°
2026-04-25 05:33 33.93642 -118.40886 126 ft 9 kts 336°
2026-04-25 05:34 33.93706 -118.40904 126 ft 9 kts 352°
2026-04-25 05:34 33.93753 -118.40908 128 ft 6 kts 358°
2026-04-25 05:34 33.93757 -118.40908 127 ft 0 kts 356°
2026-04-25 05:34 33.93758 -118.40908 127 ft 1 kts 356°
2026-04-25 05:35 33.93766 -118.40903 125 ft 3 kts 31°
2026-04-25 05:35 33.93786 -118.40857 126 ft 10 kts 70°
2026-04-25 05:35 33.93799 -118.40770 127 ft 11 kts 82°
2026-04-25 05:35 33.93810 -118.40684 128 ft 11 kts 82°
2026-04-25 05:36 33.93818 -118.40596 129 ft 11 kts 84°
2026-04-25 05:36 33.93825 -118.40508 125 ft 11 kts 84°
2026-04-25 05:36 33.93832 -118.40421 130 ft 11 kts 83°
2026-04-25 05:36 33.93844 -118.40333 129 ft 11 kts 81°
2026-04-25 05:37 33.93853 -118.40248 125 ft 10 kts 83°
2026-04-25 05:37 33.93863 -118.40164 127 ft 10 kts 82°
2026-04-25 05:37 33.93875 -118.40080 129 ft 10 kts 71°
2026-04-25 05:37 33.93919 -118.40050 127 ft 7 kts
2026-04-25 05:38 33.93968 -118.40030 128 ft 7 kts 23°
2026-04-25 05:38 33.94008 -118.40006 126 ft 0 kts 25°
2026-04-25 05:38 33.94013 -118.40002 125 ft 3 kts 30°
2026-04-25 05:38 33.94023 -118.39996 125 ft 0 kts 30°
2026-04-25 05:39 33.94023 -118.39995 125 ft 0 kts 30°
2026-04-25 05:47 33.94027 -118.39993 125 ft 0 kts 28°